iso_date,epoch_date,Year,Hour,Min,DOY,POS_DOY,Lat,Lon,BP,Ts,Ta,has_bp,has_ts,has_ta,BuoyID,Buoy_Type,Buoy_Owner,Logistics,Hemisphere
2013-04-01T09:11:31Z,1364807491,2013,9,12,91.383,91.383,78.2274,15.605,1002.5,2.6,-999.0,yes,yes,no,300234011973540,IceBall,USIABP,NPEO,North
2013-04-06T15:59:02Z,1365263942,2013,15,59,96.666,96.666,88.8798,74.7122,1033.8,-12.8,-999.0,yes,yes,no,300234011973540,IceBall,USIABP,NPEO,North
2013-04-06T16:59:31Z,1365267571,2013,17,0,96.708,96.708,88.8798,74.7122,1034.0,-18.2,-999.0,yes,yes,no,300234011973540,IceBall,USIABP,NPEO,North
2013-04-06T18:00:00Z,1365271200,2013,18,0,96.75,96.75,88.8766,74.4338,1033.8,-19.4,-999.0,yes,yes,no,300234011973540,IceBall,USIABP,NPEO,North
2013-04-06T19:00:28Z,1365274829,2013,19,0,96.792,96.792,88.8766,74.4338,1033.6,-17.6,-999.0,yes,yes,no,300234011973540,IceBall,USIABP,NPEO,North
2013-04-06T19:59:31Z,1365278371,2013,20,0,96.833,96.833,88.8766,74.4338,1033.5,-17.1,-999.0,yes,yes,no,300234011973540,IceBall,USIABP,NPEO,North
2013-04-06T21:00:00Z,1365282000,2013,21,0,96.875,96.875,88.8708,73.953,1033.2,-17.3,-999.0,yes,yes,no,300234011973540,IceBall,USIABP,NPEO,North
2013-04-06T22:00:28Z,1365285629,2013,22,0,96.917,96.917,88.8708,73.953,1033.0,-17.6,-999.0,yes,yes,no,300234011973540,IceBall,USIABP,NPEO,North
2013-04-06T22:59:31Z,1365289171,2013,23,0,96.958,96.958,88.8708,73.953,1032.8,-17.8,-999.0,yes,yes,no,300234011973540,IceBall,USIABP,NPEO,North
2013-04-07T00:00:00Z,1365292800,2013,0,0,97.0,97.0,88.8642,73.445,1032.7,-18.0,-999.0,yes,yes,no,300234011973540,IceBall,USIABP,NPEO,North
2013-04-07T01:00:28Z,1365296429,2013,1,0,97.042,97.042,88.8642,73.445,1032.1,-18.1,-999.0,yes,yes,no,300234011973540,IceBall,USIABP,NPEO,North
2013-04-07T01:59:31Z,1365299971,2013,2,0,97.083,97.083,88.8642,73.445,1031.7,-18.2,-999.0,yes,yes,no,300234011973540,IceBall,USIABP,NPEO,North
2013-04-07T03:00:00Z,1365303600,2013,3,0,97.125,97.125,88.8578,72.8986,1031.3,-18.2,-999.0,yes,yes,no,300234011973540,IceBall,USIABP,NPEO,North
2013-04-07T04:00:28Z,1365307229,2013,4,0,97.167,97.167,88.8578,72.8986,1030.9,-18.1,-999.0,yes,yes,no,300234011973540,IceBall,USIABP,NPEO,North
2013-04-07T04:59:31Z,1365310771,2013,5,0,97.208,97.208,88.8578,72.8986,1030.4,-18.1,-999.0,yes,yes,no,300234011973540,IceBall,USIABP,NPEO,North
2013-04-07T06:00:00Z,1365314400,2013,6,0,97.25,97.25,88.851,72.2886,1030.0,-18.1,-999.0,yes,yes,no,300234011973540,IceBall,USIABP,NPEO,North
2013-04-07T07:00:28Z,1365318029,2013,7,0,97.292,97.292,88.851,72.2886,1029.5,-18.2,-999.0,yes,yes,no,300234011973540,IceBall,USIABP,NPEO,North
2013-04-07T07:59:31Z,1365321571,2013,8,0,97.333,97.333,88.851,72.2886,1029.1,-18.2,-999.0,yes,yes,no,300234011973540,IceBall,USIABP,NPEO,North
2013-04-07T09:00:00Z,1365325200,2013,9,0,97.375,97.375,88.8456,71.5618,1028.9,-18.2,-999.0,yes,yes,no,300234011973540,IceBall,USIABP,NPEO,North
2013-04-07T10:00:28Z,1365328829,2013,10,0,97.417,97.417,88.8456,71.5618,1028.4,-18.2,-999.0,yes,yes,no,300234011973540,IceBall,USIABP,NPEO,North
2013-04-07T10:59:31Z,1365332371,2013,11,0,97.458,97.458,88.8456,71.5618,1028.0,-18.2,-999.0,yes,yes,no,300234011973540,IceBall,USIABP,NPEO,North
2013-04-07T12:00:00Z,1365336000,2013,12,0,97.5,97.5,88.841,70.9224,1027.7,-18.1,-999.0,yes,yes,no,300234011973540,IceBall,USIABP,NPEO,North
2013-04-07T13:00:28Z,1365339629,2013,13,0,97.542,97.542,88.841,70.9224,1027.1,-18.1,-999.0,yes,yes,no,300234011973540,IceBall,USIABP,NPEO,North
2013-04-07T13:59:31Z,1365343171,2013,14,0,97.583,97.583,88.841,70.9224,1026.5,-18.0,-999.0,yes,yes,no,300234011973540,IceBall,USIABP,NPEO,North
2013-04-07T15:00:00Z,1365346800,2013,15,0,97.625,97.625,88.8354,70.3438,1026.2,-18.1,-999.0,yes,yes,no,300234011973540,IceBall,USIABP,NPEO,North
2013-04-07T16:00:28Z,1365350429,2013,16,0,97.667,97.667,88.8354,70.3438,1025.9,-18.1,-999.0,yes,yes,no,300234011973540,IceBall,USIABP,NPEO,North
2013-04-07T16:59:31Z,1365353971,2013,17,0,97.708,97.708,88.8354,70.3438,1025.6,-18.2,-999.0,yes,yes,no,300234011973540,IceBall,USIABP,NPEO,North
2013-04-07T18:00:00Z,1365357600,2013,18,0,97.75,97.75,88.8316,69.7726,1025.2,-18.2,-999.0,yes,yes,no,300234011973540,IceBall,USIABP,NPEO,North
2013-04-07T19:00:28Z,1365361229,2013,19,0,97.792,97.792,88.8316,69.7726,1025.0,-18.2,-999.0,yes,yes,no,300234011973540,IceBall,USIABP,NPEO,North
2013-04-07T19:59:31Z,1365364771,2013,20,0,97.833,97.833,88.8316,69.7726,1024.9,-18.3,-999.0,yes,yes,no,300234011973540,IceBall,USIABP,NPEO,North
2013-04-07T21:00:00Z,1365368400,2013,21,0,97.875,97.875,88.8296,69.2542,1024.8,-18.4,-999.0,yes,yes,no,300234011973540,IceBall,USIABP,NPEO,North
2013-04-07T22:00:28Z,1365372029,2013,22,0,97.917,97.917,88.8296,69.2542,1024.6,-18.4,-999.0,yes,yes,no,300234011973540,IceBall,USIABP,NPEO,North
2013-04-07T22:59:31Z,1365375571,2013,23,0,97.958,97.958,88.8296,69.2542,1024.4,-18.5,-999.0,yes,yes,no,300234011973540,IceBall,USIABP,NPEO,North
2013-04-08T00:00:00Z,1365379200,2013,0,0,98.0,98.0,88.8278,68.874,1024.1,-18.5,-999.0,yes,yes,no,300234011973540,IceBall,USIABP,NPEO,North
2013-04-08T01:00:28Z,1365382829,2013,1,0,98.042,98.042,88.8278,68.874,1024.1,-18.5,-999.0,yes,yes,no,300234011973540,IceBall,USIABP,NPEO,North
2013-04-08T01:59:31Z,1365386371,2013,2,0,98.083,98.083,88.8278,68.874,1023.9,-18.3,-999.0,yes,yes,no,300234011973540,IceBall,USIABP,NPEO,North
2013-04-08T03:00:00Z,1365390000,2013,3,0,98.125,98.125,88.827,68.6358,1023.7,-18.2,-999.0,yes,yes,no,300234011973540,IceBall,USIABP,NPEO,North
2013-04-08T04:00:28Z,1365393629,2013,4,0,98.167,98.167,88.827,68.6358,1023.6,-18.1,-999.0,yes,yes,no,300234011973540,IceBall,USIABP,NPEO,North
2013-04-08T04:59:31Z,1365397171,2013,5,0,98.208,98.208,88.827,68.6358,1023.7,-18.0,-999.0,yes,yes,no,300234011973540,IceBall,USIABP,NPEO,North
2013-04-08T06:00:00Z,1365400800,2013,6,0,98.25,98.25,88.8264,68.43,1023.6,-18.0,-999.0,yes,yes,no,300234011973540,IceBall,USIABP,NPEO,North
2013-04-08T07:00:28Z,1365404429,2013,7,0,98.292,98.292,88.8264,68.43,1023.6,-17.9,-999.0,yes,yes,no,300234011973540,IceBall,USIABP,NPEO,North
2013-04-08T07:59:31Z,1365407971,2013,8,0,98.333,98.333,88.8264,68.43,1023.7,-17.9,-999.0,yes,yes,no,300234011973540,IceBall,USIABP,NPEO,North
2013-04-08T09:00:00Z,1365411600,2013,9,0,98.375,98.375,88.8248,68.2412,1023.7,-17.9,-999.0,yes,yes,no,300234011973540,IceBall,USIABP,NPEO,North
2013-04-08T10:00:28Z,1365415229,2013,10,0,98.417,98.417,88.8248,68.2412,1023.5,-17.9,-999.0,yes,yes,no,300234011973540,IceBall,USIABP,NPEO,North
2013-04-08T10:59:31Z,1365418771,2013,11,0,98.458,98.458,88.8248,68.2412,1023.3,-17.9,-999.0,yes,yes,no,300234011973540,IceBall,USIABP,NPEO,North
2013-04-08T12:00:00Z,1365422400,2013,12,0,98.5,98.5,88.822,68.0556,1023.1,-17.9,-999.0,yes,yes,no,300234011973540,IceBall,USIABP,NPEO,North
2013-04-08T13:00:28Z,1365426029,2013,13,0,98.542,98.542,88.822,68.0556,1022.8,-17.9,-999.0,yes,yes,no,300234011973540,IceBall,USIABP,NPEO,North
2013-04-08T13:59:31Z,1365429571,2013,14,0,98.583,98.583,88.822,68.0556,1023.1,-17.8,-999.0,yes,yes,no,300234011973540,IceBall,USIABP,NPEO,North
2013-04-08T15:00:00Z,1365433200,2013,15,0,98.625,98.625,88.819,67.881,1023.0,-17.9,-999.0,yes,yes,no,300234011973540,IceBall,USIABP,NPEO,North
2013-04-08T16:00:28Z,1365436829,2013,16,0,98.667,98.667,88.819,67.881,1022.7,-17.9,-999.0,yes,yes,no,300234011973540,IceBall,USIABP,NPEO,North
2013-04-08T16:59:31Z,1365440371,2013,17,0,98.708,98.708,88.819,67.881,1022.6,-17.8,-999.0,yes,yes,no,300234011973540,IceBall,USIABP,NPEO,North
2013-04-08T18:00:00Z,1365444000,2013,18,0,98.75,98.75,88.815,67.677,1022.4,-17.8,-999.0,yes,yes,no,300234011973540,IceBall,USIABP,NPEO,North
2013-04-08T19:00:28Z,1365447629,2013,19,0,98.792,98.792,88.815,67.677,1022.0,-17.8,-999.0,yes,yes,no,300234011973540,IceBall,USIABP,NPEO,North
2013-04-08T19:59:31Z,1365451171,2013,20,0,98.833,98.833,88.815,67.677,1021.6,-17.9,-999.0,yes,yes,no,300234011973540,IceBall,USIABP,NPEO,North
2013-04-08T21:00:00Z,1365454800,2013,21,0,98.875,98.875,88.8092,67.3644,1021.5,-17.9,-999.0,yes,yes,no,300234011973540,IceBall,USIABP,NPEO,North
2013-04-08T22:00:28Z,1365458429,2013,22,0,98.917,98.917,88.8092,67.3644,1021.2,-18.0,-999.0,yes,yes,no,300234011973540,IceBall,USIABP,NPEO,North
2013-04-08T22:59:31Z,1365461971,2013,23,0,98.958,98.958,88.8092,67.3644,1020.8,-18.1,-999.0,yes,yes,no,300234011973540,IceBall,USIABP,NPEO,North
2013-04-09T00:00:00Z,1365465600,2013,0,0,99.0,99.0,88.8018,66.975,1020.5,-18.2,-999.0,yes,yes,no,300234011973540,IceBall,USIABP,NPEO,North
2013-04-09T01:00:28Z,1365469229,2013,1,0,99.042,99.042,88.8018,66.975,1020.0,-18.3,-999.0,yes,yes,no,300234011973540,IceBall,USIABP,NPEO,North
2013-04-09T01:59:31Z,1365472771,2013,2,0,99.083,99.083,88.8018,66.975,1019.6,-18.2,-999.0,yes,yes,no,300234011973540,IceBall,USIABP,NPEO,North
2013-04-09T03:00:00Z,1365476400,2013,3,0,99.125,99.125,88.7944,66.533,1019.3,-18.2,-999.0,yes,yes,no,300234011973540,IceBall,USIABP,NPEO,North
2013-04-09T04:00:28Z,1365480029,2013,4,0,99.167,99.167,88.7944,66.533,1018.8,-18.1,-999.0,yes,yes,no,300234011973540,IceBall,USIABP,NPEO,North
2013-04-09T04:59:31Z,1365483571,2013,5,0,99.208,99.208,88.7944,66.533,1018.6,-18.0,-999.0,yes,yes,no,300234011973540,IceBall,USIABP,NPEO,North
2013-04-09T06:00:00Z,1365487200,2013,6,0,99.25,99.25,88.7886,65.8774,1018.1,-17.9,-999.0,yes,yes,no,300234011973540,IceBall,USIABP,NPEO,North
2013-04-09T07:00:28Z,1365490829,2013,7,0,99.292,99.292,88.7886,65.8774,1018.1,-17.8,-999.0,yes,yes,no,300234011973540,IceBall,USIABP,NPEO,North
2013-04-09T07:59:31Z,1365494371,2013,8,0,99.333,99.333,88.7886,65.8774,1018.2,-17.7,-999.0,yes,yes,no,300234011973540,IceBall,USIABP,NPEO,North
2013-04-09T09:00:00Z,1365498000,2013,9,0,99.375,99.375,88.7824,65.1038,1018.2,-17.6,-999.0,yes,yes,no,300234011973540,IceBall,USIABP,NPEO,North
2013-04-09T10:00:28Z,1365501629,2013,10,0,99.417,99.417,88.7824,65.1038,1018.0,-17.5,-999.0,yes,yes,no,300234011973540,IceBall,USIABP,NPEO,North
2013-04-09T10:59:31Z,1365505171,2013,11,0,99.458,99.458,88.7824,65.1038,1018.0,-17.4,-999.0,yes,yes,no,300234011973540,IceBall,USIABP,NPEO,North
2013-04-09T12:00:00Z,1365508800,2013,12,0,99.5,99.5,88.7758,64.42,1018.0,-17.3,-999.0,yes,yes,no,300234011973540,IceBall,USIABP,NPEO,North
2013-04-09T13:00:28Z,1365512429,2013,13,0,99.542,99.542,88.7758,64.42,1017.8,-17.3,-999.0,yes,yes,no,300234011973540,IceBall,USIABP,NPEO,North
2013-04-09T13:59:31Z,1365515971,2013,14,0,99.583,99.583,88.7758,64.42,1017.8,-17.3,-999.0,yes,yes,no,300234011973540,IceBall,USIABP,NPEO,North
2013-04-09T15:00:00Z,1365519600,2013,15,0,99.625,99.625,88.7688,63.8616,1017.6,-17.3,-999.0,yes,yes,no,300234011973540,IceBall,USIABP,NPEO,North
2013-04-09T16:00:28Z,1365523229,2013,16,0,99.667,99.667,88.7688,63.8616,1017.6,-17.2,-999.0,yes,yes,no,300234011973540,IceBall,USIABP,NPEO,North
2013-04-09T16:59:31Z,1365526771,2013,17,0,99.708,99.708,88.7688,63.8616,1017.5,-17.2,-999.0,yes,yes,no,300234011973540,IceBall,USIABP,NPEO,North
2013-04-09T18:00:00Z,1365530400,2013,18,0,99.75,99.75,88.7608,63.3114,1017.4,-17.2,-999.0,yes,yes,no,300234011973540,IceBall,USIABP,NPEO,North
2013-04-09T19:00:28Z,1365534029,2013,19,0,99.792,99.792,88.7608,63.3114,1017.3,-17.3,-999.0,yes,yes,no,300234011973540,IceBall,USIABP,NPEO,North
2013-04-09T19:59:31Z,1365537571,2013,20,0,99.833,99.833,88.7608,63.3114,1017.1,-17.3,-999.0,yes,yes,no,300234011973540,IceBall,USIABP,NPEO,North
2013-04-09T21:00:00Z,1365541200,2013,21,0,99.875,99.875,88.7506,62.7258,1017.0,-17.2,-999.0,yes,yes,no,300234011973540,IceBall,USIABP,NPEO,North
2013-04-09T22:00:28Z,1365544829,2013,22,0,99.917,99.917,88.7506,62.7258,1016.7,-17.2,-999.0,yes,yes,no,300234011973540,IceBall,USIABP,NPEO,North
2013-04-09T22:59:31Z,1365548371,2013,23,0,99.958,99.958,88.7506,62.7258,1016.6,-17.2,-999.0,yes,yes,no,300234011973540,IceBall,USIABP,NPEO,North
2013-04-10T00:00:00Z,1365552000,2013,0,0,100.0,100.0,88.7398,62.1556,1016.2,-17.2,-999.0,yes,yes,no,300234011973540,IceBall,USIABP,NPEO,North
2013-04-10T01:00:28Z,1365555629,2013,1,0,100.042,100.042,88.7398,62.1556,1015.9,-17.2,-999.0,yes,yes,no,300234011973540,IceBall,USIABP,NPEO,North
2013-04-10T01:59:31Z,1365559171,2013,2,0,100.083,100.083,88.7398,62.1556,1015.7,-17.2,-999.0,yes,yes,no,300234011973540,IceBall,USIABP,NPEO,North
2013-04-10T03:00:00Z,1365562800,2013,3,0,100.125,100.125,88.7292,61.6388,1015.5,-17.3,-999.0,yes,yes,no,300234011973540,IceBall,USIABP,NPEO,North
2013-04-10T04:00:28Z,1365566429,2013,4,0,100.167,100.167,88.7292,61.6388,1015.4,-17.3,-999.0,yes,yes,no,300234011973540,IceBall,USIABP,NPEO,North
2013-04-10T04:59:31Z,1365569971,2013,5,0,100.208,100.208,88.7292,61.6388,1015.2,-17.3,-999.0,yes,yes,no,300234011973540,IceBall,USIABP,NPEO,North
2013-04-10T06:00:00Z,1365573600,2013,6,0,100.25,100.25,88.7176,61.1312,1015.0,-17.3,-999.0,yes,yes,no,300234011973540,IceBall,USIABP,NPEO,North
2013-04-10T07:00:28Z,1365577229,2013,7,0,100.292,100.292,88.7176,61.1312,1014.8,-17.4,-999.0,yes,yes,no,300234011973540,IceBall,USIABP,NPEO,North
2013-04-10T07:59:31Z,1365580771,2013,8,0,100.333,100.333,88.7176,61.1312,1014.5,-17.4,-999.0,yes,yes,no,300234011973540,IceBall,USIABP,NPEO,North
2013-04-10T09:00:00Z,1365584400,2013,9,0,100.375,100.375,88.705,60.523,1014.3,-17.4,-999.0,yes,yes,no,300234011973540,IceBall,USIABP,NPEO,North
2013-04-10T10:00:28Z,1365588029,2013,10,0,100.417,100.417,88.705,60.523,1014.2,-17.5,-999.0,yes,yes,no,300234011973540,IceBall,USIABP,NPEO,North
2013-04-10T10:59:31Z,1365591571,2013,11,0,100.458,100.458,88.705,60.523,1013.8,-17.5,-999.0,yes,yes,no,300234011973540,IceBall,USIABP,NPEO,North
2013-04-10T12:00:00Z,1365595200,2013,12,0,100.5,100.5,88.6934,59.8852,1013.7,-17.4,-999.0,yes,yes,no,300234011973540,IceBall,USIABP,NPEO,North
2013-04-10T13:00:28Z,1365598829,2013,13,0,100.542,100.542,88.6934,59.8852,1013.3,-17.4,-999.0,yes,yes,no,300234011973540,IceBall,USIABP,NPEO,North
2013-04-10T13:59:31Z,1365602371,2013,14,0,100.583,100.583,88.6934,59.8852,1013.1,-17.5,-999.0,yes,yes,no,300234011973540,IceBall,USIABP,NPEO,North
2013-04-10T15:00:00Z,1365606000,2013,15,0,100.625,100.625,88.6824,59.3824,1012.8,-17.5,-999.0,yes,yes,no,300234011973540,IceBall,USIABP,NPEO,North
2013-04-10T16:00:28Z,1365609629,2013,16,0,100.667,100.667,88.6824,59.3824,1012.3,-17.6,-999.0,yes,yes,no,300234011973540,IceBall,USIABP,NPEO,North
2013-04-10T16:59:31Z,1365613171,2013,17,0,100.708,100.708,88.6824,59.3824,1012.0,-17.5,-999.0,yes,yes,no,300234011973540,IceBall,USIABP,NPEO,North
2013-04-10T18:00:00Z,1365616800,2013,18,0,100.75,100.75,88.6712,58.9666,1011.7,-17.5,-999.0,yes,yes,no,300234011973540,IceBall,USIABP,NPEO,North
2013-04-10T19:00:28Z,1365620429,2013,19,0,100.792,100.792,88.6712,58.9666,1011.5,-17.5,-999.0,yes,yes,no,300234011973540,IceBall,USIABP,NPEO,North
2013-04-10T19:59:31Z,1365623971,2013,20,0,100.833,100.833,88.6712,58.9666,1011.3,-17.7,-999.0,yes,yes,no,300234011973540,IceBall,USIABP,NPEO,North
2013-04-10T21:00:00Z,1365627600,2013,21,0,100.875,100.875,88.6604,58.5584,1011.2,-17.8,-999.0,yes,yes,no,300234011973540,IceBall,USIABP,NPEO,North
2013-04-10T22:00:28Z,1365631229,2013,22,0,100.917,100.917,88.6604,58.5584,1010.9,-17.9,-999.0,yes,yes,no,300234011973540,IceBall,USIABP,NPEO,North
2013-04-10T22:59:31Z,1365634771,2013,23,0,100.958,100.958,88.6604,58.5584,1010.4,-17.9,-999.0,yes,yes,no,300234011973540,IceBall,USIABP,NPEO,North
2013-04-11T00:00:00Z,1365638400,2013,0,0,101.0,101.0,88.6508,58.2048,1010.2,-18.0,-999.0,yes,yes,no,300234011973540,IceBall,USIABP,NPEO,North
2013-04-11T01:00:28Z,1365642029,2013,1,0,101.042,101.042,88.6508,58.2048,1009.9,-18.3,-999.0,yes,yes,no,300234011973540,IceBall,USIABP,NPEO,North
2013-04-11T01:59:31Z,1365645571,2013,2,0,101.083,101.083,88.6508,58.2048,1009.5,-18.2,-999.0,yes,yes,no,300234011973540,IceBall,USIABP,NPEO,North
2013-04-11T03:00:00Z,1365649200,2013,3,0,101.125,101.125,88.642,57.9754,1009.3,-18.1,-999.0,yes,yes,no,300234011973540,IceBall,USIABP,NPEO,North
2013-04-11T04:00:28Z,1365652829,2013,4,0,101.167,101.167,88.642,57.9754,1009.0,-18.1,-999.0,yes,yes,no,300234011973540,IceBall,USIABP,NPEO,North
2013-04-11T04:59:31Z,1365656371,2013,5,0,101.208,101.208,88.642,57.9754,1008.7,-18.0,-999.0,yes,yes,no,300234011973540,IceBall,USIABP,NPEO,North
2013-04-11T06:00:00Z,1365660000,2013,6,0,101.25,101.25,88.6326,57.767,1008.6,-18.0,-999.0,yes,yes,no,300234011973540,IceBall,USIABP,NPEO,North
2013-04-11T07:00:28Z,1365663629,2013,7,0,101.292,101.292,88.6326,57.767,1008.4,-17.9,-999.0,yes,yes,no,300234011973540,IceBall,USIABP,NPEO,North
2013-04-11T07:59:31Z,1365667171,2013,8,0,101.333,101.333,88.6326,57.767,1008.4,-17.9,-999.0,yes,yes,no,300234011973540,IceBall,USIABP,NPEO,North
2013-04-11T09:00:00Z,1365670800,2013,9,0,101.375,101.375,88.6234,57.5372,1008.4,-17.8,-999.0,yes,yes,no,300234011973540,IceBall,USIABP,NPEO,North
2013-04-11T10:00:28Z,1365674429,2013,10,0,101.417,101.417,88.6234,57.5372,1008.5,-17.7,-999.0,yes,yes,no,300234011973540,IceBall,USIABP,NPEO,North
2013-04-11T10:59:31Z,1365677971,2013,11,0,101.458,101.458,88.6234,57.5372,1008.3,-17.7,-999.0,yes,yes,no,300234011973540,IceBall,USIABP,NPEO,North
2013-04-11T11:05:16Z,1365678317,2013,11,6,101.462,101.462,88.6174,57.3816,1008.3,-17.6,-999.0,yes,yes,no,300234011973540,IceBall,USIABP,NPEO,North
2013-04-11T12:00:00Z,1365681600,2013,12,0,101.5,101.5,88.6148,57.3242,1008.2,-17.6,-999.0,yes,yes,no,300234011973540,IceBall,USIABP,NPEO,North
2013-04-11T13:00:28Z,1365685229,2013,13,0,101.542,101.542,88.6122,57.2766,1008.0,-17.6,-999.0,yes,yes,no,300234011973540,IceBall,USIABP,NPEO,North
2013-04-11T13:59:31Z,1365688771,2013,14,0,101.583,101.583,88.6098,57.2366,1008.1,-17.5,-999.0,yes,yes,no,300234011973540,IceBall,USIABP,NPEO,North
2013-04-11T15:00:00Z,1365692400,2013,15,0,101.625,101.625,88.6074,57.2098,1007.9,-17.5,-999.0,yes,yes,no,300234011973540,IceBall,USIABP,NPEO,North
2013-04-11T16:00:28Z,1365696029,2013,16,0,101.667,101.667,88.6052,57.1884,1007.9,-17.5,-999.0,yes,yes,no,300234011973540,IceBall,USIABP,NPEO,North
2013-04-11T16:59:31Z,1365699571,2013,17,0,101.708,101.708,88.603,57.1648,1007.9,-17.5,-999.0,yes,yes,no,300234011973540,IceBall,USIABP,NPEO,North
2013-04-11T18:00:00Z,1365703200,2013,18,0,101.75,101.75,88.6008,57.1344,1007.7,-17.5,-999.0,yes,yes,no,300234011973540,IceBall,USIABP,NPEO,North
2013-04-11T19:00:28Z,1365706829,2013,19,0,101.792,101.792,88.5988,57.0946,1007.9,-17.6,-999.0,yes,yes,no,300234011973540,IceBall,USIABP,NPEO,North
2013-04-11T19:59:31Z,1365710371,2013,20,0,101.833,101.833,88.597,57.0406,1008.0,-17.7,-999.0,yes,yes,no,300234011973540,IceBall,USIABP,NPEO,North
2013-04-11T21:00:00Z,1365714000,2013,21,0,101.875,101.875,88.5952,56.9802,1008.3,-17.8,-999.0,yes,yes,no,300234011973540,IceBall,USIABP,NPEO,North
2013-04-11T22:00:28Z,1365717629,2013,22,0,101.917,101.917,88.5938,56.9204,1008.3,-17.9,-999.0,yes,yes,no,300234011973540,IceBall,USIABP,NPEO,North
2013-04-11T22:59:31Z,1365721171,2013,23,0,101.958,101.958,88.5922,56.8658,1008.3,-18.1,-999.0,yes,yes,no,300234011973540,IceBall,USIABP,NPEO,North
2013-04-12T00:00:00Z,1365724800,2013,0,0,102.0,102.0,88.591,56.8158,1008.3,-18.2,-999.0,yes,yes,no,300234011973540,IceBall,USIABP,NPEO,North
2013-04-12T01:00:28Z,1365728429,2013,1,0,102.042,102.042,88.5898,56.7766,1008.4,-18.3,-999.0,yes,yes,no,300234011973540,IceBall,USIABP,NPEO,North
2013-04-12T01:59:31Z,1365731971,2013,2,0,102.083,102.083,88.5886,56.7436,1008.5,-18.3,-999.0,yes,yes,no,300234011973540,IceBall,USIABP,NPEO,North
2013-04-12T03:00:00Z,1365735600,2013,3,0,102.125,102.125,88.5876,56.704,1008.7,-18.1,-999.0,yes,yes,no,300234011973540,IceBall,USIABP,NPEO,North
2013-04-12T04:00:28Z,1365739229,2013,4,0,102.167,102.167,88.5868,56.6578,1008.8,-18.0,-999.0,yes,yes,no,300234011973540,IceBall,USIABP,NPEO,North
2013-04-12T04:59:31Z,1365742771,2013,5,0,102.208,102.208,88.586,56.6116,1009.1,-17.9,-999.0,yes,yes,no,300234011973540,IceBall,USIABP,NPEO,North
2013-04-12T06:00:00Z,1365746400,2013,6,0,102.25,102.25,88.5852,56.551,1009.2,-17.8,-999.0,yes,yes,no,300234011973540,IceBall,USIABP,NPEO,North
2013-04-12T07:00:28Z,1365750029,2013,7,0,102.292,102.292,88.5844,56.4714,1009.7,-17.7,-999.0,yes,yes,no,300234011973540,IceBall,USIABP,NPEO,North
2013-04-12T07:59:31Z,1365753571,2013,8,0,102.333,102.333,88.5834,56.377,1009.9,-17.7,-999.0,yes,yes,no,300234011973540,IceBall,USIABP,NPEO,North
2013-04-12T09:00:00Z,1365757200,2013,9,0,102.375,102.375,88.5822,56.2744,1010.1,-17.7,-999.0,yes,yes,no,300234011973540,IceBall,USIABP,NPEO,North
2013-04-12T10:00:28Z,1365760829,2013,10,0,102.417,102.417,88.5808,56.1676,1010.3,-17.7,-999.0,yes,yes,no,300234011973540,IceBall,USIABP,NPEO,North
2013-04-12T10:59:31Z,1365764371,2013,11,0,102.458,102.458,88.579,56.0602,1010.3,-17.6,-999.0,yes,yes,no,300234011973540,IceBall,USIABP,NPEO,North
2013-04-12T12:00:00Z,1365768000,2013,12,0,102.5,102.5,88.577,55.9596,1010.1,-17.6,-999.0,yes,yes,no,300234011973540,IceBall,USIABP,NPEO,North
2013-04-12T13:00:28Z,1365771629,2013,13,0,102.542,102.542,88.5746,55.8598,1010.0,-17.6,-999.0,yes,yes,no,300234011973540,IceBall,USIABP,NPEO,North
2013-04-12T13:59:31Z,1365775171,2013,14,0,102.583,102.583,88.5718,55.7686,1009.6,-17.5,-999.0,yes,yes,no,300234011973540,IceBall,USIABP,NPEO,North
2013-04-12T15:00:00Z,1365778800,2013,15,0,102.625,102.625,88.5688,55.6824,1009.2,-17.5,-999.0,yes,yes,no,300234011973540,IceBall,USIABP,NPEO,North
2013-04-12T16:00:28Z,1365782429,2013,16,0,102.667,102.667,88.565,55.5962,1008.8,-17.5,-999.0,yes,yes,no,300234011973540,IceBall,USIABP,NPEO,North
2013-04-12T16:59:31Z,1365785971,2013,17,0,102.708,102.708,88.5606,55.5038,1008.5,-17.5,-999.0,yes,yes,no,300234011973540,IceBall,USIABP,NPEO,North
2013-04-12T18:00:00Z,1365789600,2013,18,0,102.75,102.75,88.556,55.4148,1007.9,-17.4,-999.0,yes,yes,no,300234011973540,IceBall,USIABP,NPEO,North
2013-04-12T19:00:28Z,1365793229,2013,19,0,102.792,102.792,88.551,55.3224,1007.6,-17.4,-999.0,yes,yes,no,300234011973540,IceBall,USIABP,NPEO,North
2013-04-12T19:59:31Z,1365796771,2013,20,0,102.833,102.833,88.546,55.2124,1007.3,-17.2,-999.0,yes,yes,no,300234011973540,IceBall,USIABP,NPEO,North
2013-04-12T21:00:00Z,1365800400,2013,21,0,102.875,102.875,88.541,55.0926,1007.1,-17.0,-999.0,yes,yes,no,300234011973540,IceBall,USIABP,NPEO,North
2013-04-12T22:00:28Z,1365804029,2013,22,0,102.917,102.917,88.5358,54.9588,1006.6,-16.8,-999.0,yes,yes,no,300234011973540,IceBall,USIABP,NPEO,North
2013-04-12T22:59:31Z,1365807571,2013,23,0,102.958,102.958,88.531,54.8286,1006.1,-16.6,-999.0,yes,yes,no,300234011973540,IceBall,USIABP,NPEO,North
2013-04-13T00:00:00Z,1365811200,2013,0,0,103.0,103.0,88.5258,54.7046,1005.6,-16.4,-999.0,yes,yes,no,300234011973540,IceBall,USIABP,NPEO,North
2013-04-13T01:00:28Z,1365814829,2013,1,0,103.042,103.042,88.5206,54.5878,1005.1,-16.2,-999.0,yes,yes,no,300234011973540,IceBall,USIABP,NPEO,North
2013-04-13T01:59:31Z,1365818371,2013,2,0,103.083,103.083,88.5154,54.4794,1004.8,-16.0,-999.0,yes,yes,no,300234011973540,IceBall,USIABP,NPEO,North
2013-04-13T03:00:00Z,1365822000,2013,3,0,103.125,103.125,88.51,54.3832,1004.4,-15.8,-999.0,yes,yes,no,300234011973540,IceBall,USIABP,NPEO,North
2013-04-13T04:00:28Z,1365825629,2013,4,0,103.167,103.167,88.5046,54.2994,1003.9,-15.5,-999.0,yes,yes,no,300234011973540,IceBall,USIABP,NPEO,North
2013-04-13T04:59:31Z,1365829171,2013,5,0,103.208,103.208,88.4996,54.2192,1003.3,-15.3,-999.0,yes,yes,no,300234011973540,IceBall,USIABP,NPEO,North
2013-04-13T06:00:00Z,1365832800,2013,6,0,103.25,103.25,88.4946,54.1366,1002.8,-15.1,-999.0,yes,yes,no,300234011973540,IceBall,USIABP,NPEO,North
2013-04-13T07:00:28Z,1365836429,2013,7,0,103.292,103.292,88.49,54.0556,1002.7,-14.9,-999.0,yes,yes,no,300234011973540,IceBall,USIABP,NPEO,North
2013-04-13T07:59:31Z,1365839971,2013,8,0,103.333,103.333,88.4856,53.974,1002.4,-14.7,-999.0,yes,yes,no,300234011973540,IceBall,USIABP,NPEO,North
2013-04-13T09:00:00Z,1365843600,2013,9,0,103.375,103.375,88.4812,53.897,1002.2,-14.6,-999.0,yes,yes,no,300234011973540,IceBall,USIABP,NPEO,North
2013-04-13T10:00:28Z,1365847229,2013,10,0,103.417,103.417,88.4774,53.8248,1001.9,-14.5,-999.0,yes,yes,no,300234011973540,IceBall,USIABP,NPEO,North